Location: Clanezzo
(45.7500°N, 9.6000°E)
Time: 04:15:46
(UTC+00:00)

ATLAS CENTAUR R/B - Pass Details

Date: 12 May 2021
Orbit: 472 x 671 km, 64.6° (Epoch: 13 June)

Event Time Altitude Azimuth Distance (km) Brightness Sun altitude
Exits shadow 23:40:03 43° 359° (N) 696 2.2 -25.7°
Drops below altitude 10° 23:42:56 10° 29° (NNE) 1,716 4.7 -25.6°
Sets 23:45:12 0° 34° (NE) 2,634 5.8 -25.6°
